Location: Bethune
(34.4150°N, 80.3490°W)
Time: 12:28:11
(UTC-04:00)

ISS - Visible Passes

Search period start: 24 July 2017 00:00
Search period end: 03 August 2017 00:00
Orbit: 400 x 408 km, 51.6° (Epoch: 25 July)

Date Brightness Start Highest point End Pass type
(mag) Time Alt. Az. Time Alt. Az. Time Alt. Az.
24 Jul -1.7 04:26:28 10° NNW 04:29:21 29° NE 04:32:16 10° E visible
24 Jul -3.9 21:03:23 10° SW 21:06:36 64° SE 21:09:48 10° NE visible
24 Jul -0.5 22:41:31 10° WNW 22:43:21 14° NNW 22:45:11 10° N visible
25 Jul -0.8 03:34:40 10° NNW 03:36:55 17° NNE 03:39:09 10° ENE visible
25 Jul -3.6 05:10:25 10° WNW 05:13:33 44° SW 05:16:40 10° SSE visible
25 Jul -1.2 21:48:11 10° W 21:50:51 23° NW 21:53:31 10° NNE visible
26 Jul -2.4 20:55:19 10° WSW 20:58:26 42° NW 21:01:34 10° NE visible
27 Jul -0.5 21:41:37 10° NW 21:42:57 12° NNW 21:44:19 10° N visible
28 Jul -0.9 20:47:58 10° W 20:50:24 19° NNW 20:52:49 10° NNE visible
